Home   Weather   Skopje   Past weeks
Flag for North Macedonia

Past Weather in Skopje, North Macedonia — Yesterday and Last 2 Weeks

Now
88 °F

Scattered clouds.


Feels Like: 88 °F
Forecast: 88 / 62 °F
Wind: 12 mph from Northeast

Location: Skopje-Petrovec

Current Time: Jun 26, 2019 at 2:12:02 pm

Latest Report: Jun 26, 2019 at 1:30 pm


Visibility: N/A

Pressure: 30.15 "Hg

Humidity: 40%

Dew Point: 61 °F

Location of SkopjeLocation

Past Weather in Skopje — Graph

°F

Skopje Temperature Yesterday

Maximum temperature yesterday: 88 °F (at 2:00 pm)
Minimum temperature yesterday: 63 °F (at 12:00 am)
Average temperature yesterday: 72 °F

High & Low Weather Summary for the Past Weeks

 TemperatureHumidityPressure
High93 °F (Jun 13, 3:00 pm)100% (Jun 17, 6:30 pm)30.24 "Hg (Jun 17, 6:30 pm)
Low57 °F (Jun 21, 5:00 am)26% (Jun 15, 2:00 pm)29.83 "Hg (Jun 16, 3:30 pm)
Average75 °F68%29.99 "Hg
* Reported Jun 11 12:00 pm — Jun 26 12:30 pm, Skopje. Weather by CustomWeather, © 2019

Note: Actual official high and low records may vary slightly from our data, if they occured in-between our weather recording intervals... More about our weather records

Advertising

Skopje Weather History for the Previous 24 Hours

Scroll right to see more
 ConditionsComfort  
Time TempWeatherWind HumidityBarometerVisibility
12:30 pm
Wed, Jun 26
86 °FScattered clouds.7 mph49%30.15 "HgN/A
12:00 pm86 °FScattered clouds.12 mph46%30.18 "HgN/A
11:30 am84 °FScattered clouds.8 mph51%30.18 "HgN/A
11:00 am82 °FPassing clouds.5 mph55%30.18 "HgN/A
10:30 am81 °FPassing clouds.5 mph58%30.18 "HgN/A
10:00 am79 °FPassing clouds.5 mph61%30.21 "HgN/A
9:30 am77 °FPassing clouds.3 mph69%30.21 "HgN/A
9:00 am77 °FPassing clouds.No wind69%30.21 "HgN/A
8:30 am73 °FScattered clouds.No wind78%30.21 "HgN/A
8:00 am72 °FScattered clouds.No wind83%30.21 "HgN/A
7:30 am72 °FPassing clouds.No wind78%30.18 "HgN/A
7:00 am70 °FPassing clouds.No wind83%30.21 "HgN/A
6:30 am68 °FPassing clouds.No wind88%30.18 "HgN/A
6:00 am64 °FPassing clouds.1 mph94%30.18 "HgN/A
5:30 am64 °FPassing clouds.3 mph88%30.18 "HgN/A
5:00 am64 °FSunny.2 mph88%30.18 "Hg10 mi
4:00 am66 °FClear.5 mph88%30.18 "Hg10 mi
3:30 am64 °FClear.2 mph94%30.15 "Hg10 mi
3:00 am66 °FClear.2 mph88%30.18 "Hg10 mi
2:30 am68 °FClear.1 mph88%30.15 "Hg10 mi
2:00 am68 °FClear.1 mph88%30.15 "Hg10 mi
1:30 am66 °FClear.1 mph94%30.15 "Hg10 mi
1:00 am66 °FClear.3 mph88%30.15 "Hg10 mi
12:30 am70 °FPassing clouds.5 mph78%30.15 "HgN/A
12:00 am66 °FClear.2 mph94%30.18 "Hg10 mi
11:30 pm
Tue, Jun 25
68 °FClear.3 mph88%30.18 "Hg10 mi
11:00 pm68 °FClear.2 mph88%30.18 "Hg10 mi
10:30 pm68 °FClear.2 mph94%30.18 "Hg10 mi
10:00 pm68 °FClear.2 mph88%30.18 "Hg10 mi
9:30 pm70 °FPassing clouds.5 mph88%30.15 "HgN/A
9:00 pm68 °FPassing clouds.2 mph94%30.15 "HgN/A
8:30 pm70 °FPassing clouds.1 mph88%30.12 "HgN/A
8:00 pm72 °FPassing clouds.2 mph88%30.12 "HgN/A
7:30 pm72 °FPassing clouds.2 mph83%30.12 "HgN/A
7:00 pm72 °FThunderstorms. Scattered clouds.3 mph88%30.12 "HgN/A
6:30 pm73 °FThunderstorms. Scattered clouds.3 mph78%30.12 "HgN/A
6:00 pm73 °FThunderstorms. Scattered clouds.2 mph83%30.12 "HgN/A
5:30 pm73 °FThunderstorms. Partly sunny.5 mph83%30.09 "HgN/A
5:00 pm75 °FThunderstorms. Partly sunny.8 mph74%30.09 "HgN/A
4:30 pm77 °FThundershowers. Partly sunny.5 mph69%30.09 "HgN/A
4:00 pm77 °FThunderstorms. Scattered clouds.18 mph69%30.09 "HgN/A
3:30 pm88 °FPassing clouds.9 mph46%30.07 "HgN/A
3:00 pm82 °FScattered clouds.9 mph62%30.09 "HgN/A
2:30 pm88 °FPassing clouds.2 mph43%30.09 "HgN/A
2:00 pm88 °FPassing clouds.2 mph40%30.09 "HgN/A
Weather by CustomWeather, © 2019

See weather overview